Location: Unspecified
(29.9680°N, 0.0000°E)
Time: 18:20:31
(UTC+00:00)

Explorer 7 - Pass Details

Date: 30 June 2019
Orbit: 485 x 680 km, 50.3° (Epoch: 20 August)

Event Time Altitude Azimuth Distance (km) Brightness Sun altitude
Rises 04:15:47 0° 216° (SW) 2,555 - -9.5°
Exits shadow 04:17:54 10° 212° (SSW) 1,708 8.8 -9.1°
Reaches altitude 10° 04:17:56 10° 212° (SSW) 1,693 8.7 -9.1°
Maximum altitude 04:21:41 58° 133° (SE) 603 7.1 -8.4°
Drops below altitude 10° 04:25:40 10° 54° (NE) 1,790 11.2 -7.7°
Sets 04:27:59 0° 50° (NE) 2,719 12.7 -7.2°
